Regional Weather Roundup
Issued by NWS Cleveland, OH

Home | Current Version | Previous Version | Text Only | Print | Product List | Glossary Off
Versions: 1 2 3 4 5 6 7 8 9 10 11 12 13 14 15 16 17 18 19 20 21 22 23 24 25 26 27 28 29 30 31 32 33 34 35 36 37 38 39 40 41 42 43 44 45 46 47 48 49 50

000
ASUS41 KCLE 071900
RWRCLE
OHIO REGIONAL WEATHER ROUNDUP
NATIONAL WEATHER SERVICE WILMINGTON, OH
200 PM EST SUN FEB 07 2016

NOTE: "FAIR" INDICATES FEW OR NO CLOUDS BELOW 12,000 FEET WITH NO
SIGNIFICANT WEATHER AND/OR OBSTRUCTIONS TO VISIBILITY.

OHZ001>008-015>018-024>027-034-035-043-044-072000-
   NORTHWEST OHIO

CITY           SKY/WX    TMP DP  RH WIND       PRES   REMARKS
DEFIANCE       FAIR      48  30  49 S18G28    29.82F
FINDLAY        FAIR      51  30  44 SW23      29.87F
TOLEDO EXPRESS FAIR      49  30  48 SW13G24   29.83F
TOLEDO EXEC    FAIR      51  31  46 SW21G30   29.85F
LIMA           FAIR      50  28  42 SW21G26   29.87F
$$

OHZ009>014-019>023-028>033-038-089-072000-
   NORTHEAST OHIO

CITY           SKY/WX    TMP DP  RH WIND       PRES   REMARKS
CLE-HOPKINS    PTSUNNY   50  28  42 S14       29.93F
CLE-LAKEFRONT  FAIR      53  28  38 SW15      29.90F
CUY CO. ARPT   PTSUNNY   52  30  43 S16       29.91F
LORAIN-ELYRIA  FAIR      51  30  44 SW15      29.90F
ASHTABULA      FAIR      47  28  47 S13       29.93F
AKRON-CANTON   FAIR      50  27  40 SW13      29.93F
WOOSTER        NOT AVBL
MANSFIELD      FAIR      48  29  47 S15G23    29.91F
YOUNGSTOWN     PTSUNNY   50  25  37 S10       29.94F
$$

OHZ042-051>053-060>062-070>072-077>081-072000-
  SOUTHWEST OHIO

CITY           SKY/WX    TMP DP  RH WIND       PRES   REMARKS
CINC-COVINGTON FAIR      52  20  28 SW17G29   29.96F
CINC-LUNKEN    FAIR      53  23  31 SW16      29.98F
HAMILTON       FAIR      54  22  28 SW14G26   29.96F
DAYTON         NOT AVBL
WRIGHT-PAT AFB NOT AVBL
DAYTON GENERAL FAIR      51  22  31 SW13G25   29.94F
WILMINGTON     FAIR      50  25  37 SW17G28   29.95F
$$

OHZ036-037-039>041-045>050-054>059-063>069-073>076-082>088-072000-
  CENTRAL AND SOUTHEAST OHIO

CITY           SKY/WX    TMP DP  RH WIND       PRES   REMARKS
COLUMBUS       PTSUNNY   49  25  39 SW9       29.96F
OSU AIRPORT    FAIR      50  26  39 SW13      29.95F
BOLTON FIELD   SUNNY     50  30  46 SW10      29.96F
RICKENBACK AFB NOT AVBL
NEWARK         FAIR      51  28  41 SW9       29.95F
MARION         FAIR      51  27  39 SW20      29.92F
LANCASTER      FAIR      52  26  36 S10       29.97F
ZANESVILLE     FAIR      54  25  32 SW8       29.96F
NEW PHILLY     FAIR      49  26  41 S10       29.97F
$$



USA.gov is the U.S. government's official web portal to all federal, state and local government web resources and services.